Santander, Cantabria

latitud = 43° 29' 28''N | longitud = 003° 48' 02''W
52 metros sobre el nivel del mar | datos mensuales

Fecha, hora, temperatura, viento dirección y velocidad, humedad y presión.

  • 22-11-2017 09:00:00 | 18.40°C | Sur |30.00 km/h | 30.00% | 1002.50 hPa
  • 22-11-2017 08:00:00 | 17.60°C | Sur |30.00 km/h | 30.00% | 1002.60 hPa
  • 22-11-2017 07:00:00 | 17.40°C | Sur |29.00 km/h | 30.00% | 1002.80 hPa
  • 22-11-2017 06:00:00 | 17.20°C | Sur |29.00 km/h | 31.00% | 1003.20 hPa
  • 22-11-2017 05:00:00 | 17.00°C | Sur |28.00 km/h | 32.00% | 1003.90 hPa
  • 22-11-2017 04:00:00 | 12.80°C | Sur |16.00 km/h | 40.00% | 1005.00 hPa
  • 22-11-2017 03:00:00 | 12.50°C | Sudeste |14.00 km/h | 40.00% | 1006.10 hPa
  • 22-11-2017 02:00:00 | 12.70°C | Este |3.00 km/h | 51.00% | 1006.70 hPa
  • 22-11-2017 01:00:00 | 12.20°C | Sur |12.00 km/h | 53.00% | 1007.50 hPa
  • 22-11-2017 00:00:00 | 12.50°C | Sur |6.00 km/h | 50.00% | 1008.00 hPa
  • 21-11-2017 23:00:00 | 14.00°C | Calma |0.00 km/h | 78.00% | 1008.50 hPa
  • 21-11-2017 22:00:00 | 13.50°C | Sudeste |8.00 km/h | 73.00% | 1008.60 hPa
  • 21-11-2017 21:00:00 | 13.90°C | Sudeste |7.00 km/h | 65.00% | 1009.10 hPa
  • 21-11-2017 20:00:00 | 13.80°C | Sudeste |6.00 km/h | 70.00% | 1009.50 hPa
  • 21-11-2017 19:00:00 | 14.20°C | Este |8.00 km/h | 73.00% | 1009.80 hPa
  • 21-11-2017 18:00:00 | 14.10°C | Sudeste |14.00 km/h | 70.00% | 1009.60 hPa
  • 21-11-2017 17:00:00 | 15.30°C | Este |12.00 km/h | 64.00% | 1010.00 hPa
  • 21-11-2017 16:00:00 | 16.50°C | Este |13.00 km/h | 61.00% | 1010.40 hPa
  • 21-11-2017 15:00:00 | 16.70°C | Este |10.00 km/h | 60.00% | 1010.80 hPa
  • 21-11-2017 14:00:00 | 16.10°C | Este |9.00 km/h | 61.00% | 1011.60 hPa
  • 21-11-2017 13:00:00 | 16.40°C | Este |8.00 km/h | 52.00% | 1012.50 hPa
  • 21-11-2017 12:00:00 | 17.70°C | Sur |10.00 km/h | 41.00% | 1013.30 hPa
  • 21-11-2017 11:00:00 | 16.30°C | Sur |3.00 km/h | 39.00% | 1013.60 hPa
  • 21-11-2017 10:00:00 | 13.80°C | Sur |15.00 km/h | 40.00% | 1013.70 hPa